{"data":{"norad_id":48299,"intl_designator":"2021-036Z","name":"STARLINK-2557","alt_names":[],"object_type":"PAYLOAD","status":"ACTIVE","operator":null,"country":"US","launch_date":"2021-04-29","launch_site_code":"AFETR","launch_vehicle":null,"mission":null,"orbit_class":"UNKNOWN","rcs_meters":null,"size_class":null,"mass_kg":null,"dimensions":null,"purposes":["comms"],"wikipedia_slug":null,"has_3d_model":false,"image_url":null,"decayed_at":null,"tle_current":{"epoch":"2026-09-19T11:01:19.911936Z","epoch_age_seconds":108162,"freshness":"FRESH","line1":"1 48299U 21036Z   26262.45925824  .00001009  00000+0  44266-4 0  9996","line2":"2 48299  53.1601 253.5775 0001302  82.2847 277.8302 15.31712006298106","mean_motion":15.31712006,"eccentricity":0.0001302,"inclination_deg":53.1601,"raan_deg":253.5775,"arg_perigee_deg":82.2847,"mean_anomaly_deg":277.8302,"bstar":4.4266e-5,"rev_number":29810,"period_min":94.012451058636,"perigee_km":469.81248707311,"apogee_km":471.59592532321,"semimajor_km":6848.8412061982,"source":"CELESTRAK","updated_at":"2026-09-20T09:00:38.931496Z"}}}